Year,Month,Day,Hour,Minute,Value (Times are PST for temperature in C)
2008,11,25,00,00,1.50
2008,11,25,00,01,1.50
2008,11,25,00,02,1.50
2008,11,25,00,03,1.50
2008,11,25,00,04,1.50
2008,11,25,00,05,1.50
2008,11,25,00,06,1.50
2008,11,25,00,07,1.50
2008,11,25,00,08,1.40
2008,11,25,00,09,1.40
2008,11,25,00,10,1.40
2008,11,25,00,11,1.40
2008,11,25,00,12,1.40
2008,11,25,00,13,1.40
2008,11,25,00,14,1.30
2008,11,25,00,15,1.30
2008,11,25,00,16,1.30
2008,11,25,00,17,1.30
2008,11,25,00,18,1.30
2008,11,25,00,19,1.30
2008,11,25,00,20,1.30
2008,11,25,00,21,1.30
2008,11,25,00,22,1.30
2008,11,25,00,23,1.30
2008,11,25,00,24,1.30
2008,11,25,00,25,1.20
2008,11,25,00,26,1.20
2008,11,25,00,27,1.20
2008,11,25,00,28,1.20
2008,11,25,00,29,1.20
2008,11,25,00,30,1.20
2008,11,25,00,31,1.20
2008,11,25,00,32,1.20
2008,11,25,00,33,1.20
2008,11,25,00,34,1.20
2008,11,25,00,35,1.20
2008,11,25,00,36,1.20
2008,11,25,00,37,1.20
2008,11,25,00,38,1.20
2008,11,25,00,39,1.20
2008,11,25,00,40,1.20
2008,11,25,00,41,1.20
2008,11,25,00,42,1.20
2008,11,25,00,43,1.20
2008,11,25,00,44,1.20
2008,11,25,00,45,1.20
2008,11,25,00,46,1.20
2008,11,25,00,47,1.20
2008,11,25,00,48,1.20
2008,11,25,00,49,1.20
2008,11,25,00,50,1.20
2008,11,25,00,51,1.20
2008,11,25,00,52,1.20
2008,11,25,00,53,1.20
2008,11,25,00,54,1.20
2008,11,25,00,55,1.20
2008,11,25,00,56,1.10
2008,11,25,00,57,1.10
2008,11,25,00,58,1.10
2008,11,25,00,59,1.10
2008,11,25,01,00,1.10
2008,11,25,01,01,1.10
2008,11,25,01,02,1.10
2008,11,25,01,03,1.10
2008,11,25,01,04,1.10
2008,11,25,01,05,1.10
2008,11,25,01,06,1.10
2008,11,25,01,07,1.10
2008,11,25,01,08,1.10
2008,11,25,01,09,1.10
2008,11,25,01,10,1.10
2008,11,25,01,11,1.10
2008,11,25,01,44,1.10
2008,11,25,01,45,1.10
2008,11,25,01,46,1.10
2008,11,25,01,47,1.10
2008,11,25,01,48,1.10
2008,11,25,01,49,1.00
2008,11,25,01,50,1.00
2008,11,25,01,51,1.00
2008,11,25,01,52,1.00
2008,11,25,01,53,1.00
2008,11,25,01,54,1.00
2008,11,25,01,55,1.00
2008,11,25,01,56,1.00
2008,11,25,01,57,1.00
2008,11,25,01,58,1.00
2008,11,25,01,59,1.00
2008,11,25,02,00,1.00
2008,11,25,02,01,1.00
2008,11,25,02,02,1.00
2008,11,25,02,03,1.00
2008,11,25,02,04,1.00
2008,11,25,02,05,1.00
2008,11,25,02,06,1.00
2008,11,25,02,07,1.00
2008,11,25,02,08,1.00
2008,11,25,02,09,1.00
2008,11,25,02,10,1.00
2008,11,25,02,11,0.90
2008,11,25,02,12,0.90
2008,11,25,02,13,0.90
2008,11,25,02,14,0.90
2008,11,25,02,15,0.90
2008,11,25,02,16,0.90
2008,11,25,02,17,0.90
2008,11,25,02,18,0.90
2008,11,25,02,19,0.90
2008,11,25,02,20,0.90
2008,11,25,02,21,0.90
2008,11,25,02,22,0.90
2008,11,25,02,23,0.90
2008,11,25,02,24,0.90
2008,11,25,02,25,0.90
2008,11,25,02,26,0.90
2008,11,25,02,27,0.90
2008,11,25,02,28,0.90
2008,11,25,02,29,0.90
2008,11,25,02,30,0.90
2008,11,25,02,31,0.90
2008,11,25,02,32,0.90
2008,11,25,02,33,0.80
2008,11,25,02,34,0.80
2008,11,25,02,35,0.80
2008,11,25,02,36,0.80
2008,11,25,02,37,0.80
2008,11,25,02,38,0.80
2008,11,25,02,39,0.80
2008,11,25,02,40,0.80
2008,11,25,02,41,0.80
2008,11,25,02,42,0.80
2008,11,25,02,43,0.80
2008,11,25,02,44,0.80
2008,11,25,02,45,0.80
2008,11,25,02,46,0.80
2008,11,25,02,47,0.80
2008,11,25,02,48,0.80
2008,11,25,02,49,0.80
2008,11,25,02,50,0.80
2008,11,25,02,51,0.90
2008,11,25,02,52,0.90
2008,11,25,02,53,0.90
2008,11,25,02,54,0.90
2008,11,25,02,55,0.90
2008,11,25,02,56,0.90
2008,11,25,02,57,0.90
2008,11,25,02,58,0.90
2008,11,25,02,59,0.90
2008,11,25,03,00,0.90
2008,11,25,03,01,0.90
2008,11,25,03,02,0.90
2008,11,25,03,03,0.90
2008,11,25,03,04,0.90
2008,11,25,03,05,0.90
2008,11,25,03,06,0.90
2008,11,25,03,07,0.90
2008,11,25,03,08,0.90
2008,11,25,03,09,0.90
2008,11,25,03,10,0.90
2008,11,25,03,11,1.00
2008,11,25,03,12,1.00
2008,11,25,03,13,1.00
2008,11,25,03,14,1.00
2008,11,25,03,15,1.00
2008,11,25,03,16,1.00
2008,11,25,03,17,1.10
2008,11,25,03,18,1.10
2008,11,25,03,19,1.10
2008,11,25,03,20,1.10
2008,11,25,03,21,1.10
2008,11,25,03,22,1.10
2008,11,25,03,23,1.10
2008,11,25,03,24,1.10
2008,11,25,03,25,1.00
2008,11,25,03,26,1.00
2008,11,25,03,27,1.00
2008,11,25,03,28,1.00
2008,11,25,03,29,1.00
2008,11,25,03,30,1.00
2008,11,25,03,31,1.00
2008,11,25,03,32,1.00
2008,11,25,03,33,1.00
2008,11,25,03,34,0.90
2008,11,25,03,35,0.90
2008,11,25,03,36,0.90
2008,11,25,03,37,1.00
2008,11,25,03,38,1.00
2008,11,25,03,39,1.00
2008,11,25,03,40,1.00
2008,11,25,03,41,1.00
2008,11,25,03,42,1.00
2008,11,25,03,43,1.00
2008,11,25,03,44,1.00
2008,11,25,03,45,1.00
2008,11,25,03,46,1.00
2008,11,25,03,47,1.00
2008,11,25,03,48,1.00
2008,11,25,03,49,1.00
2008,11,25,03,50,1.10
2008,11,25,03,51,1.10
2008,11,25,03,52,1.10
2008,11,25,03,53,1.10
2008,11,25,03,54,1.10
2008,11,25,03,55,1.10
2008,11,25,03,56,1.10
2008,11,25,03,57,1.10
2008,11,25,03,58,1.10
2008,11,25,03,59,1.20
2008,11,25,04,00,1.20
2008,11,25,04,01,1.20
2008,11,25,04,02,1.20
2008,11,25,04,03,1.20
2008,11,25,04,04,1.30
2008,11,25,04,05,1.30
2008,11,25,04,06,1.30
2008,11,25,04,07,1.30
2008,11,25,04,08,1.30
2008,11,25,04,09,1.30
2008,11,25,04,10,1.30
2008,11,25,04,11,1.30
2008,11,25,04,12,1.30
2008,11,25,04,13,1.30
2008,11,25,04,14,1.30
2008,11,25,04,15,1.30
2008,11,25,04,16,1.30
2008,11,25,04,17,1.30
2008,11,25,04,18,1.30
2008,11,25,04,19,1.30
2008,11,25,04,20,1.30
2008,11,25,04,21,1.30
2008,11,25,04,22,1.30
2008,11,25,04,23,1.30
2008,11,25,04,24,1.30
2008,11,25,04,25,1.30
2008,11,25,04,26,1.30
2008,11,25,04,27,1.30
2008,11,25,04,28,1.30
2008,11,25,04,29,1.30
2008,11,25,04,30,1.30
2008,11,25,04,31,1.30
2008,11,25,04,32,1.30
2008,11,25,04,33,1.30
2008,11,25,04,34,1.30
2008,11,25,04,35,1.30
2008,11,25,04,36,1.30
2008,11,25,04,37,1.30
2008,11,25,04,38,1.30
2008,11,25,04,39,1.30
2008,11,25,04,40,1.30
2008,11,25,04,41,1.30
2008,11,25,04,42,1.30
2008,11,25,04,43,1.30
2008,11,25,04,44,1.30
2008,11,25,04,45,1.30
2008,11,25,04,46,1.30
2008,11,25,04,47,1.40
2008,11,25,04,48,1.40
2008,11,25,04,49,1.40
2008,11,25,04,50,1.40
2008,11,25,04,51,1.40
2008,11,25,04,52,1.40
2008,11,25,04,53,1.40
2008,11,25,04,54,1.50
2008,11,25,04,55,1.50
2008,11,25,04,56,1.50
2008,11,25,04,57,1.50
2008,11,25,04,58,1.50
2008,11,25,04,59,1.50
2008,11,25,05,00,1.50
2008,11,25,05,01,1.50
2008,11,25,05,02,1.50
2008,11,25,05,03,1.50
2008,11,25,05,04,1.50
2008,11,25,05,05,1.50
2008,11,25,05,06,1.50
2008,11,25,05,07,1.50
2008,11,25,05,08,1.50
2008,11,25,05,09,1.50
2008,11,25,05,10,1.50
2008,11,25,05,11,1.50
2008,11,25,05,12,1.50
2008,11,25,05,13,1.50
2008,11,25,05,14,1.50
2008,11,25,05,15,1.50
2008,11,25,05,16,1.50
2008,11,25,05,17,1.50
2008,11,25,05,18,1.50
2008,11,25,05,19,1.50
2008,11,25,05,20,1.60
2008,11,25,05,21,1.60
2008,11,25,05,22,1.60
2008,11,25,05,23,1.60
2008,11,25,05,24,1.60
2008,11,25,05,25,1.60
2008,11,25,05,26,1.60
2008,11,25,05,27,1.60
2008,11,25,05,28,1.60
2008,11,25,05,29,1.60
2008,11,25,05,30,1.60
2008,11,25,05,31,1.60
2008,11,25,05,32,1.60
2008,11,25,05,33,1.60
2008,11,25,05,34,1.60
2008,11,25,05,35,1.50
2008,11,25,05,36,1.50
2008,11,25,05,37,1.50
2008,11,25,05,38,1.50
2008,11,25,05,39,1.50
2008,11,25,05,40,1.50
2008,11,25,05,41,1.50
2008,11,25,05,42,1.50
2008,11,25,05,43,1.50
2008,11,25,05,44,1.50
2008,11,25,05,45,1.50
2008,11,25,05,46,1.50
2008,11,25,05,47,1.50
2008,11,25,05,48,1.60
2008,11,25,05,49,1.60
2008,11,25,05,50,1.60
2008,11,25,05,51,1.60
2008,11,25,05,52,1.60
2008,11,25,05,53,1.70
2008,11,25,05,54,1.70
2008,11,25,05,55,1.70
2008,11,25,05,56,1.70
2008,11,25,05,57,1.70
2008,11,25,05,58,1.70
2008,11,25,05,59,1.70
2008,11,25,06,00,1.70
2008,11,25,06,01,1.70
2008,11,25,06,02,1.80
2008,11,25,06,03,1.80
2008,11,25,06,04,1.80
2008,11,25,06,05,1.80
2008,11,25,06,06,1.80
2008,11,25,06,07,1.80
2008,11,25,06,08,1.80
2008,11,25,06,09,1.80
2008,11,25,06,10,1.80
2008,11,25,06,11,1.80
2008,11,25,06,12,1.80
2008,11,25,06,13,1.80
2008,11,25,06,14,1.80
2008,11,25,06,15,1.80
2008,11,25,06,16,1.80
2008,11,25,06,17,1.80
2008,11,25,06,18,1.90
2008,11,25,06,19,1.90
2008,11,25,06,20,1.90
2008,11,25,06,21,1.90
2008,11,25,06,22,1.90
2008,11,25,06,23,2.00
2008,11,25,06,24,2.00
2008,11,25,06,25,2.00
2008,11,25,06,26,2.00
2008,11,25,06,27,2.00
2008,11,25,06,28,2.00
2008,11,25,06,29,2.10
2008,11,25,06,30,2.10
2008,11,25,06,31,2.10
2008,11,25,06,32,2.10
2008,11,25,06,33,2.10
2008,11,25,06,34,2.10
2008,11,25,06,35,2.10
2008,11,25,06,36,2.20
2008,11,25,06,37,2.20
2008,11,25,06,38,2.20
2008,11,25,06,39,2.20
2008,11,25,06,40,2.20
2008,11,25,06,41,2.20
2008,11,25,06,42,2.20
2008,11,25,06,43,2.20
2008,11,25,06,44,2.20
2008,11,25,06,45,2.20
2008,11,25,06,46,2.20
2008,11,25,06,47,2.20
2008,11,25,06,48,2.20
2008,11,25,06,49,2.20
2008,11,25,06,50,2.30
2008,11,25,06,51,2.30
2008,11,25,06,52,2.30
2008,11,25,06,53,2.30
2008,11,25,06,54,2.40
2008,11,25,06,55,2.40
2008,11,25,06,56,2.40
2008,11,25,06,57,2.40
2008,11,25,06,58,2.40
2008,11,25,06,59,2.50
2008,11,25,07,00,2.50
2008,11,25,07,01,2.50
2008,11,25,07,02,2.60
2008,11,25,07,03,2.60
2008,11,25,07,04,2.60
2008,11,25,07,05,2.60
2008,11,25,07,06,2.70
2008,11,25,07,07,2.70
2008,11,25,07,08,2.70
2008,11,25,07,09,2.70
2008,11,25,07,10,2.70
2008,11,25,07,11,2.70
2008,11,25,07,12,2.70
2008,11,25,07,13,2.70
2008,11,25,07,14,2.70
2008,11,25,07,15,2.80
2008,11,25,07,16,2.80
2008,11,25,07,17,2.80
2008,11,25,07,18,2.80
2008,11,25,07,19,2.80
2008,11,25,07,20,2.90
2008,11,25,07,21,2.90
2008,11,25,07,22,2.90
2008,11,25,07,23,2.90
2008,11,25,07,24,2.90
2008,11,25,07,25,2.90
2008,11,25,07,26,2.90
2008,11,25,07,27,2.90
2008,11,25,07,28,2.90
2008,11,25,07,29,2.90
2008,11,25,07,30,2.90
2008,11,25,07,31,2.90
2008,11,25,07,32,2.90
2008,11,25,07,33,2.90
2008,11,25,07,34,2.90
2008,11,25,07,35,2.90
2008,11,25,07,36,2.90
2008,11,25,07,37,2.90
2008,11,25,07,38,2.90
2008,11,25,07,39,2.90
2008,11,25,07,40,3.00
2008,11,25,07,41,3.10
2008,11,25,07,42,3.10
2008,11,25,07,43,3.10
2008,11,25,07,44,3.10
2008,11,25,07,45,3.10
2008,11,25,07,46,3.10
2008,11,25,07,47,3.10
2008,11,25,07,48,3.20
2008,11,25,07,49,3.20
2008,11,25,07,50,3.20
2008,11,25,07,51,3.20
2008,11,25,07,52,3.20
2008,11,25,07,53,3.20
2008,11,25,07,54,3.30
2008,11,25,07,55,3.30
2008,11,25,07,56,3.30
2008,11,25,07,57,3.30
2008,11,25,07,58,3.30
2008,11,25,07,59,3.30
2008,11,25,08,00,3.30
2008,11,25,08,01,3.30
2008,11,25,08,02,3.30
2008,11,25,08,03,3.40
2008,11,25,08,04,3.40
2008,11,25,08,05,3.40
2008,11,25,08,06,3.40
2008,11,25,08,07,3.50
2008,11,25,08,08,3.50
2008,11,25,08,09,3.50
2008,11,25,08,10,3.60
2008,11,25,08,11,3.60
2008,11,25,08,12,3.60
2008,11,25,08,13,3.70
2008,11,25,08,14,3.70
2008,11,25,08,15,3.70
2008,11,25,08,16,3.80
2008,11,25,08,17,3.80
2008,11,25,08,18,3.80
2008,11,25,08,19,3.80
2008,11,25,08,20,3.80
2008,11,25,08,21,3.80
2008,11,25,08,22,3.80
2008,11,25,08,23,3.80
2008,11,25,08,24,3.80
2008,11,25,08,25,3.80
2008,11,25,08,26,3.90
2008,11,25,08,27,3.90
2008,11,25,08,28,3.90
2008,11,25,08,29,3.90
2008,11,25,08,30,3.90
2008,11,25,08,31,4.00
2008,11,25,08,32,4.00
2008,11,25,08,33,4.00
2008,11,25,08,34,4.00
2008,11,25,08,35,4.00
2008,11,25,08,36,4.10
2008,11,25,08,37,4.10
2008,11,25,08,38,4.10
2008,11,25,08,39,4.10
2008,11,25,08,40,4.10
2008,11,25,08,41,4.10
2008,11,25,08,42,4.10
2008,11,25,08,43,4.10
2008,11,25,08,44,4.10
2008,11,25,08,45,4.20
2008,11,25,08,46,4.20
2008,11,25,08,47,4.20
2008,11,25,08,48,4.20
2008,11,25,08,49,4.20
2008,11,25,08,50,4.20
2008,11,25,08,51,4.20
2008,11,25,08,52,4.20
2008,11,25,08,53,4.20
2008,11,25,08,54,4.30
2008,11,25,08,55,4.30
2008,11,25,08,56,4.30
2008,11,25,08,57,4.30
2008,11,25,08,58,4.40
2008,11,25,08,59,4.40
2008,11,25,09,00,4.40
2008,11,25,09,01,4.40
2008,11,25,09,02,4.40
2008,11,25,09,03,4.40
2008,11,25,09,04,4.40
2008,11,25,09,05,4.40
2008,11,25,09,06,4.40
2008,11,25,09,07,4.40
2008,11,25,09,08,4.40
2008,11,25,09,09,4.40
2008,11,25,09,10,4.40
2008,11,25,09,11,4.40
2008,11,25,09,12,4.40
2008,11,25,09,13,4.50
2008,11,25,09,14,4.50
2008,11,25,09,15,4.50
2008,11,25,09,16,4.50
2008,11,25,09,17,4.50
2008,11,25,09,18,4.50
2008,11,25,09,19,4.60
2008,11,25,09,20,4.60
2008,11,25,09,21,4.60
2008,11,25,09,22,4.60
2008,11,25,09,23,4.60
2008,11,25,09,24,4.60
2008,11,25,09,25,4.60
2008,11,25,09,26,4.60
2008,11,25,09,27,4.60
2008,11,25,09,28,4.60
2008,11,25,09,29,4.60
2008,11,25,09,30,4.60
2008,11,25,09,31,4.60
2008,11,25,09,32,4.60
2008,11,25,09,33,4.60
2008,11,25,09,34,4.60
2008,11,25,09,35,4.60
2008,11,25,09,36,4.60
2008,11,25,09,37,4.60
2008,11,25,09,38,4.60
2008,11,25,09,39,4.60
2008,11,25,09,40,4.60
2008,11,25,09,41,4.70
2008,11,25,09,42,4.70
2008,11,25,09,43,4.80
2008,11,25,09,44,4.80
2008,11,25,09,45,4.90
2008,11,25,09,46,4.90
2008,11,25,09,47,4.90
2008,11,25,09,48,5.00
2008,11,25,09,49,5.10
2008,11,25,09,50,5.10
2008,11,25,09,51,5.10
2008,11,25,09,52,5.10
2008,11,25,09,53,5.10
2008,11,25,09,54,5.10
2008,11,25,09,55,5.10
2008,11,25,09,56,5.10
2008,11,25,09,57,5.20
2008,11,25,09,58,5.20
2008,11,25,09,59,5.20
2008,11,25,10,00,5.30
2008,11,25,10,01,5.30
2008,11,25,10,02,5.30
2008,11,25,10,03,5.30
2008,11,25,10,04,5.30
2008,11,25,10,05,5.30
2008,11,25,10,06,5.30
2008,11,25,10,07,5.30
2008,11,25,10,08,5.30
2008,11,25,10,09,5.30
2008,11,25,10,10,5.40
2008,11,25,10,11,5.40
2008,11,25,10,12,5.40
2008,11,25,10,13,5.40
2008,11,25,10,14,5.50
2008,11,25,10,15,5.50
2008,11,25,10,16,5.50
2008,11,25,10,17,5.60
2008,11,25,10,18,5.70
2008,11,25,10,19,5.70
2008,11,25,10,20,5.70
2008,11,25,10,21,5.80
2008,11,25,10,22,5.90
2008,11,25,10,23,5.90
2008,11,25,10,24,6.00
2008,11,25,10,25,6.00
2008,11,25,10,26,6.20
2008,11,25,10,27,6.30
2008,11,25,10,28,6.40
2008,11,25,10,29,6.50
2008,11,25,10,30,6.70
2008,11,25,10,31,6.80
2008,11,25,10,32,6.90
2008,11,25,10,33,7.10
2008,11,25,10,34,7.20
2008,11,25,10,35,7.40
2008,11,25,10,36,7.50
2008,11,25,10,37,7.70
2008,11,25,10,38,7.90
2008,11,25,10,39,8.00
2008,11,25,10,40,8.10
2008,11,25,10,41,8.20
2008,11,25,10,42,8.30
2008,11,25,10,43,8.30
2008,11,25,10,44,8.30
2008,11,25,10,45,8.30
2008,11,25,10,46,8.20
2008,11,25,10,47,8.20
2008,11,25,10,48,8.10
2008,11,25,10,49,8.10
2008,11,25,10,50,8.10
2008,11,25,10,51,8.10
2008,11,25,10,52,8.10
2008,11,25,10,53,8.10
2008,11,25,10,54,8.10
2008,11,25,10,55,8.20
2008,11,25,10,56,8.20
2008,11,25,10,57,8.30
2008,11,25,10,58,8.40
2008,11,25,10,59,8.50
2008,11,25,11,00,8.60
2008,11,25,11,01,8.70
2008,11,25,11,02,8.80
2008,11,25,11,03,8.90
2008,11,25,11,04,8.90
2008,11,25,11,05,9.00
2008,11,25,11,06,9.00
2008,11,25,11,07,9.10
2008,11,25,11,08,9.10
2008,11,25,11,09,9.20
2008,11,25,11,10,9.20
2008,11,25,11,11,9.20
2008,11,25,11,12,9.20
2008,11,25,11,13,9.20
2008,11,25,11,14,9.30
2008,11,25,11,15,9.30
2008,11,25,11,16,9.30
2008,11,25,11,17,9.30
2008,11,25,11,18,9.40
2008,11,25,11,19,9.40
2008,11,25,11,20,9.40
2008,11,25,11,21,9.40
2008,11,25,11,22,9.50
2008,11,25,11,23,9.50
2008,11,25,11,24,9.50
2008,11,25,11,25,9.50
2008,11,25,11,26,9.50
2008,11,25,11,27,9.50
2008,11,25,11,28,9.60
2008,11,25,11,29,9.60
2008,11,25,11,30,9.60
2008,11,25,11,31,9.60
2008,11,25,11,32,9.60
2008,11,25,11,33,9.60
2008,11,25,11,34,9.60
2008,11,25,11,35,9.60
2008,11,25,11,36,9.60
2008,11,25,11,37,9.60
2008,11,25,11,38,9.60
2008,11,25,11,39,9.60
2008,11,25,11,40,9.60
2008,11,25,11,41,9.50
2008,11,25,11,42,9.50
2008,11,25,11,43,9.50
2008,11,25,11,44,9.50
2008,11,25,11,45,9.50
2008,11,25,11,46,9.50
2008,11,25,11,47,9.60
2008,11,25,11,48,9.60
2008,11,25,11,49,9.60
2008,11,25,11,50,9.60
2008,11,25,11,51,9.60
2008,11,25,11,52,9.60
2008,11,25,11,53,9.60
2008,11,25,11,54,9.60
2008,11,25,11,55,9.60
2008,11,25,11,56,9.60
2008,11,25,11,57,9.60
2008,11,25,11,58,9.60
2008,11,25,11,59,9.60
2008,11,25,12,00,9.60
2008,11,25,12,01,9.60
2008,11,25,12,02,9.60
2008,11,25,12,03,9.60
2008,11,25,12,04,9.60
2008,11,25,12,05,9.70
2008,11,25,12,06,9.70
2008,11,25,12,07,9.70
2008,11,25,12,08,9.70
2008,11,25,12,09,9.70
2008,11,25,12,10,9.70
2008,11,25,12,11,9.70
2008,11,25,12,12,9.80
2008,11,25,12,13,9.80
2008,11,25,12,14,9.90
2008,11,25,12,15,9.90
2008,11,25,12,16,9.90
2008,11,25,12,17,10.10
2008,11,25,12,18,10.10
2008,11,25,12,19,10.10
2008,11,25,12,20,10.10
2008,11,25,12,21,10.10
2008,11,25,12,22,10.10
2008,11,25,12,23,10.20
2008,11,25,12,24,10.20
2008,11,25,12,25,10.20
2008,11,25,12,26,10.20
2008,11,25,12,27,10.20
2008,11,25,12,28,10.20
2008,11,25,12,29,10.20
2008,11,25,12,30,10.20
2008,11,25,12,31,10.30
2008,11,25,12,32,10.30
2008,11,25,12,33,10.30
2008,11,25,12,34,10.30
2008,11,25,12,35,10.30
2008,11,25,12,36,10.30
2008,11,25,12,37,10.30
2008,11,25,12,38,10.30
2008,11,25,12,39,10.30
2008,11,25,12,40,10.30
2008,11,25,12,41,10.40
2008,11,25,12,42,10.40
2008,11,25,12,43,10.30
2008,11,25,12,44,10.30
2008,11,25,12,45,10.30
2008,11,25,12,46,10.30
2008,11,25,12,47,10.30
2008,11,25,12,48,10.30
2008,11,25,12,49,10.30
2008,11,25,12,50,10.30
2008,11,25,12,51,10.30
2008,11,25,12,52,10.30
2008,11,25,12,53,10.30
2008,11,25,12,54,10.30
2008,11,25,12,55,10.40
2008,11,25,12,56,10.40
2008,11,25,12,57,10.40
2008,11,25,12,58,10.40
2008,11,25,12,59,10.40
2008,11,25,13,00,10.40
2008,11,25,13,01,10.40
2008,11,25,13,02,10.40
2008,11,25,13,03,10.40
2008,11,25,13,04,10.40
2008,11,25,13,05,10.40
2008,11,25,13,06,10.40
2008,11,25,13,07,10.40
2008,11,25,13,08,10.40
2008,11,25,13,09,10.40
2008,11,25,13,10,10.40
2008,11,25,13,11,10.40
2008,11,25,13,12,10.40
2008,11,25,13,13,10.50
2008,11,25,13,14,10.50
2008,11,25,13,15,10.40
2008,11,25,13,16,10.40
2008,11,25,13,17,10.40
2008,11,25,13,18,10.40
2008,11,25,13,19,10.60
2008,11,25,13,20,10.60
2008,11,25,13,21,10.60
2008,11,25,13,22,10.60
2008,11,25,13,23,10.60
2008,11,25,13,24,10.60
2008,11,25,13,25,10.60
2008,11,25,13,26,10.60
2008,11,25,13,27,10.60
2008,11,25,13,28,10.60
2008,11,25,13,29,10.60
2008,11,25,13,30,10.60
2008,11,25,13,31,10.60
2008,11,25,13,32,10.60
2008,11,25,13,33,10.60
2008,11,25,13,34,10.60
2008,11,25,13,35,10.60
2008,11,25,13,36,10.60
2008,11,25,13,37,10.60
2008,11,25,13,38,10.60
2008,11,25,13,39,10.60
2008,11,25,13,40,10.60
2008,11,25,13,41,10.60
2008,11,25,13,42,10.60
2008,11,25,13,43,10.60
2008,11,25,13,44,10.60
2008,11,25,13,45,10.60
2008,11,25,13,46,10.60
2008,11,25,13,47,10.60
2008,11,25,13,48,10.60
2008,11,25,13,49,10.40
2008,11,25,13,50,10.40
2008,11,25,13,51,10.40
2008,11,25,13,52,10.40
2008,11,25,13,53,10.40
2008,11,25,13,54,10.40
2008,11,25,13,55,10.40
2008,11,25,13,56,10.40
2008,11,25,13,57,10.40
2008,11,25,13,58,10.30
2008,11,25,13,59,10.20
2008,11,25,14,00,10.20
2008,11,25,14,01,10.10
2008,11,25,14,02,10.10
2008,11,25,14,03,10.10
2008,11,25,14,04,10.10
2008,11,25,14,05,10.10
2008,11,25,14,06,10.10
2008,11,25,14,07,10.10
2008,11,25,14,08,10.10
2008,11,25,14,09,10.10
2008,11,25,14,10,10.10
2008,11,25,14,11,10.10
2008,11,25,14,12,10.10
2008,11,25,14,13,10.10
2008,11,25,14,14,10.10
2008,11,25,14,15,10.00
2008,11,25,14,16,9.90
2008,11,25,14,17,9.90
2008,11,25,14,18,9.90
2008,11,25,14,19,9.90
2008,11,25,14,20,9.90
2008,11,25,14,21,9.90
2008,11,25,14,22,9.90
2008,11,25,14,23,9.90
2008,11,25,14,24,9.90
2008,11,25,14,25,9.90
2008,11,25,14,26,9.90
2008,11,25,14,27,9.90
2008,11,25,15,18,9.70
2008,11,25,15,19,9.70
2008,11,25,15,20,9.70
2008,11,25,15,21,9.70
2008,11,25,15,22,9.70
2008,11,25,15,23,9.70
2008,11,25,15,24,9.70
2008,11,25,15,25,9.70
2008,11,25,15,26,9.70
2008,11,25,15,27,9.70
2008,11,25,15,28,9.70
2008,11,25,15,29,9.70
2008,11,25,15,30,9.70
2008,11,25,15,31,9.70
2008,11,25,15,32,9.60
2008,11,25,15,33,9.60
2008,11,25,15,34,9.60
2008,11,25,15,35,9.60
2008,11,25,15,36,9.60
2008,11,25,15,37,9.50
2008,11,25,15,38,9.50
2008,11,25,15,39,9.50
2008,11,25,15,40,9.50
2008,11,25,15,41,9.50
2008,11,25,15,42,9.50
2008,11,25,15,43,9.40
2008,11,25,15,44,9.40
2008,11,25,15,45,9.40
2008,11,25,15,46,9.40
2008,11,25,15,47,9.30
2008,11,25,15,48,9.30
2008,11,25,15,49,9.30
2008,11,25,15,50,9.30
2008,11,25,15,51,9.20
2008,11,25,15,52,9.20
2008,11,25,15,53,9.20
2008,11,25,15,54,9.20
2008,11,25,15,55,9.20
2008,11,25,15,56,9.10
2008,11,25,15,57,9.10
2008,11,25,15,58,9.10
2008,11,25,15,59,9.10
2008,11,25,16,00,9.00
2008,11,25,16,01,9.00
2008,11,25,16,02,9.00
2008,11,25,16,03,9.00
2008,11,25,16,04,8.90
2008,11,25,16,05,8.90
2008,11,25,16,06,8.90
2008,11,25,16,07,8.80
2008,11,25,16,08,8.80
2008,11,25,16,09,8.80
2008,11,25,16,10,8.70
2008,11,25,16,11,8.70
2008,11,25,16,12,8.70
2008,11,25,16,13,8.70
2008,11,25,16,14,8.70
2008,11,25,16,15,8.70
2008,11,25,16,16,8.70
2008,11,25,16,17,8.70
2008,11,25,16,18,8.70
2008,11,25,16,19,8.70
2008,11,25,16,20,8.70
2008,11,25,16,21,8.70
2008,11,25,16,22,8.70
2008,11,25,16,23,8.60
2008,11,25,16,24,8.60
2008,11,25,16,25,8.60
2008,11,25,16,26,8.60
2008,11,25,16,27,8.60
2008,11,25,16,28,8.50
2008,11,25,16,29,8.50
2008,11,25,16,30,8.50
2008,11,25,16,31,8.50
2008,11,25,16,32,8.50
2008,11,25,16,33,8.40
2008,11,25,16,34,8.40
2008,11,25,16,35,8.40
2008,11,25,16,36,8.40
2008,11,25,16,37,8.40
2008,11,25,16,38,8.40
2008,11,25,16,39,8.40
2008,11,25,16,40,8.40
2008,11,25,16,41,8.40
2008,11,25,16,42,8.30
2008,11,25,16,43,8.30
2008,11,25,16,44,8.30
2008,11,25,16,45,8.30
2008,11,25,16,46,8.30
2008,11,25,16,47,8.40
2008,11,25,16,48,8.40
2008,11,25,16,49,8.40
2008,11,25,16,50,8.40
2008,11,25,16,51,8.40
2008,11,25,16,52,8.40
2008,11,25,16,53,8.40
2008,11,25,16,54,8.40
2008,11,25,16,55,8.40
2008,11,25,16,56,8.40
2008,11,25,16,57,8.40
2008,11,25,16,58,8.40
2008,11,25,16,59,8.40
2008,11,25,17,00,8.40
2008,11,25,17,01,8.40
2008,11,25,17,02,8.40
2008,11,25,17,03,8.30
2008,11,25,17,04,8.30
2008,11,25,17,05,8.30
2008,11,25,17,06,8.30
2008,11,25,17,07,8.30
2008,11,25,17,08,8.30
2008,11,25,17,09,8.30
2008,11,25,17,10,8.30
2008,11,25,17,11,8.30
2008,11,25,17,12,8.20
2008,11,25,17,13,8.20
2008,11,25,17,14,8.20
2008,11,25,17,15,8.20
2008,11,25,17,16,8.20
2008,11,25,17,17,8.20
2008,11,25,17,18,8.20
2008,11,25,17,19,8.20
2008,11,25,17,20,8.20
2008,11,25,17,21,8.20
2008,11,25,17,22,8.20
2008,11,25,17,23,8.20
2008,11,25,17,24,8.20
2008,11,25,17,25,8.10
2008,11,25,17,26,8.10
2008,11,25,17,27,8.10
2008,11,25,17,28,8.20
2008,11,25,17,29,8.20
2008,11,25,17,30,8.10
2008,11,25,17,31,8.10
2008,11,25,17,32,8.00
2008,11,25,17,33,8.00
2008,11,25,17,34,8.00
2008,11,25,17,35,8.00
2008,11,25,17,36,7.90
2008,11,25,17,37,7.90
2008,11,25,17,38,7.90
2008,11,25,17,39,7.90
2008,11,25,17,40,7.90
2008,11,25,17,41,7.90
2008,11,25,17,42,7.90
2008,11,25,17,43,7.90
2008,11,25,17,44,7.90
2008,11,25,17,45,7.90
2008,11,25,17,46,7.90
2008,11,25,17,47,8.00
2008,11,25,17,48,8.00
2008,11,25,17,49,7.90
2008,11,25,17,50,7.90
2008,11,25,17,51,7.90
2008,11,25,17,52,7.90
2008,11,25,17,53,7.90
2008,11,25,17,54,8.00
2008,11,25,17,55,8.00
2008,11,25,17,56,8.00
2008,11,25,17,57,8.00
2008,11,25,17,58,8.00
2008,11,25,17,59,8.00
2008,11,25,18,00,8.10
2008,11,25,18,01,8.10
2008,11,25,18,02,8.10
2008,11,25,18,03,8.10
2008,11,25,18,04,8.10
2008,11,25,18,05,8.10
2008,11,25,18,06,8.10
2008,11,25,18,07,8.00
2008,11,25,18,08,8.00
2008,11,25,18,09,8.00
2008,11,25,18,10,8.00
2008,11,25,18,11,8.00
2008,11,25,18,12,7.90
2008,11,25,18,13,7.90
2008,11,25,18,14,7.90
2008,11,25,18,15,7.90
2008,11,25,18,16,7.80
2008,11,25,18,17,7.80
2008,11,25,18,18,7.80
2008,11,25,18,19,7.80
2008,11,25,18,20,7.80
2008,11,25,18,21,7.70
2008,11,25,18,22,7.70
2008,11,25,18,23,7.70
2008,11,25,18,24,7.70
2008,11,25,18,25,7.70
2008,11,25,18,26,7.70
2008,11,25,18,27,7.70
2008,11,25,18,28,7.70
2008,11,25,18,29,7.70
2008,11,25,18,30,7.70
2008,11,25,18,31,7.70
2008,11,25,18,32,7.70
2008,11,25,18,33,7.70
2008,11,25,18,34,7.60
2008,11,25,18,35,7.60
2008,11,25,18,36,7.60
2008,11,25,18,37,7.60
2008,11,25,18,38,7.60
2008,11,25,18,39,7.60
2008,11,25,18,40,7.60
2008,11,25,18,41,7.60
2008,11,25,18,42,7.50
2008,11,25,18,43,7.50
2008,11,25,18,44,7.50
2008,11,25,18,45,7.50
2008,11,25,18,46,7.50
2008,11,25,18,47,7.50
2008,11,25,18,48,7.40
2008,11,25,18,49,7.40
2008,11,25,18,50,7.30
2008,11,25,18,51,7.30
2008,11,25,18,52,7.30
2008,11,25,18,53,7.30
2008,11,25,18,54,7.20
2008,11,25,18,55,7.10
2008,11,25,18,56,7.10
2008,11,25,18,57,7.10
2008,11,25,18,58,7.10
2008,11,25,18,59,7.10
2008,11,25,19,00,7.10
2008,11,25,19,01,7.10
2008,11,25,19,02,7.10
2008,11,25,19,03,7.10
2008,11,25,19,04,7.10
2008,11,25,19,05,7.20
2008,11,25,19,06,7.20
2008,11,25,19,07,7.20
2008,11,25,19,08,7.20
2008,11,25,19,09,7.30
2008,11,25,19,10,7.30
2008,11,25,19,11,7.30
2008,11,25,19,12,7.30
2008,11,25,19,13,7.20
2008,11,25,19,14,7.20
2008,11,25,19,15,7.20
2008,11,25,19,16,7.20
2008,11,25,19,17,7.20
2008,11,25,19,18,7.30
2008,11,25,19,19,7.30
2008,11,25,19,20,7.30
2008,11,25,19,21,7.20
2008,11,25,19,22,7.20
2008,11,25,19,23,7.20